Regional Weather Roundup
Issued by NWS

Home | Current Version | Previous Version | Text Only | Print | Product List | Glossary On
Versions: 1 2 3 4 5 6 7 8 9 10 11 12 13 14 15 16 17 18 19 20 21 22 23 24 25 26 27 28 29 30 31 32 33 34 35 36 37 38 39 40 41 42 43 44 45 46 47 48 49 50
000
ASUS43 KBIS 242220
RWRND

NORTH DAKOTA REGIONAL WEATHER ROUNDUP
NATIONAL WEATHER SERVICE BISMARCK ND
500 PM CDT THU APR 24 2014

NOTE: "FAIR" INDICATES FEW OR NO CLOUDS BELOW 12,000 FEET WITH NO
SIGNIFICANT WEATHER AND/OR OBSTRUCTIONS TO VISIBILITY.


NDZ001>003-009>011-017-242300-
NORTHWEST NORTH DAKOTA

CITY           SKY/WX    TMP DP  RH WIND       PRES   REMARKS
WILLISTON      CLOUDY    60  26  27 W15       29.71S
MINOT          PTSUNNY   54  39  57 N10       29.67R
MINOT AFB      PTSUNNY   56  40  54 N13       29.67R
$$

NDZ018>021-031>035-040>046-242300-
SOUTHWEST NORTH DAKOTA

CITY           SKY/WX    TMP DP  RH WIND       PRES   REMARKS
BISMARCK       MOSUNNY   64  20  18 NW20G28   29.68F
DICKINSON      MOSUNNY   58  21  24 NW22      29.70F
GARRISON         N/A     61  29  29 NW21G29   29.68S
HETTINGER ARPT MOSUNNY   62  17  17 W26G33    29.73F
$$

NDZ004>008-012>016-024-026-027-054-242300-
NORTHEAST NORTH DAKOTA

CITY           SKY/WX    TMP DP  RH WIND       PRES   REMARKS
GRAND FORKS    CLOUDY    44  40  85 E3        29.69S
GRND FRKS AFB  CLOUDY    44  44  99 E5        29.69S
DEVILS LAKE    MOSUNNY   55  45  67 NE10      29.64S
$$

NDZ022-023-025-028>030-036>039-047>053-242300-
SOUTHEAST NORTH DAKOTA

CITY           SKY/WX    TMP DP  RH WIND       PRES   REMARKS
FARGO          PTSUNNY   50  42  74 CALM      29.67F
JAMESTOWN      CLOUDY    59  26  28 W8G21     29.64S
$$




USA.gov is the U.S. government's official web portal to all federal, state and local government web resources and services.